VK6WB Weather Reports


Display with metric or nautical units.
time (UTC)temp
F
wind
direction
speed
MPH
gust
MPH
rain 1hr
in
rain 24hr
in
rain mn
in
humidity
%
barometer
mb
20260506155005 60 288 4.0 9.0 0.00 0.00 0.00 53 1025.4
20260506154005 60 290 3.0 11.0 0.00 0.00 0.00 53 1025.3
20260506153005 60 273 5.0 9.0 0.00 0.00 0.00 54 1025.3
20260506152005 60 287 3.0 8.0 0.00 0.00 0.00 53 1025.3
20260506151005 61 293 5.0 8.0 0.00 0.00 0.00 53 1025.5
20260506150005 61 275 4.0 9.0 0.00 0.00 0.00 53 1025.6
20260506145004 61 300 5.0 8.0 0.00 0.00 0.00 52 1025.6
20260506144005 61 283 3.0 9.0 0.00 0.00 0.00 52 1025.7
20260506143005 61 289 2.0 8.0 0.00 0.00 0.00 52 1025.7
20260506142004 61 283 3.0 8.0 0.00 0.00 0.00 52 1025.7
20260506141005 61 278 3.0 7.0 0.00 0.00 0.00 52 1025.8
20260506140005 61 301 2.0 7.0 0.00 0.00 0.00 53 1025.6
20260506135005 61 285 4.0 8.0 0.00 0.00 0.00 53 1025.5
20260506134005 61 285 2.0 6.0 0.00 0.00 0.00 53 1025.4
20260506133004 62 313 3.0 6.0 0.00 0.00 0.00 53 1025.5
20260506132005 62 319 3.0 9.0 0.00 0.00 0.00 52 1025.2
20260506131005 63 311 4.0 8.0 0.00 0.00 0.00 52 1025.3
20260506130005 63 316 3.0 8.0 0.00 0.00 0.00 52 1025.3
20260506125005 63 309 4.0 8.0 0.00 0.00 0.00 52 1025.2
20260506124005 63 311 4.0 12.0 0.00 0.00 0.00 52 1025.1
20260506123005 64 319 4.0 8.0 0.00 0.00 0.00 52 1025.1
20260506122005 64 322 4.0 10.0 0.00 0.00 0.00 51 1025.0
20260506121005 63 318 3.0 6.0 0.00 0.00 0.00 54 1025.0
20260506120005 63 328 2.0 5.0 0.00 0.00 0.00 54 1024.8
20260506115005 63 317 1.0 5.0 0.00 0.00 0.00 54 1024.7
20260506114005 63 320 2.0 4.0 0.00 0.00 0.00 54 1024.7
20260506113004 64 318 2.0 6.0 0.00 0.00 0.00 53 1024.7
20260506112005 64 319 3.0 7.0 0.00 0.00 0.00 53 1024.7
20260506111005 65 314 2.0 7.0 0.00 0.00 0.00 53 1024.7
20260506110004 65 307 4.0 7.0 0.00 0.00 0.00 52 1024.4
20260506105005 65 323 4.0 8.0 0.00 0.00 0.00 52 1024.3
20260506104004 65 333 3.0 7.0 0.00 0.00 0.00 52 1024.4
20260506103005 66 311 3.0 7.0 0.00 0.00 0.00 52 1024.2
20260506102005 66 301 2.0 7.0 0.00 0.00 0.00 52 1024.1
20260506101004 67 313 4.0 8.0 0.00 0.00 0.00 50 1023.9
20260506100005 67 316 3.0 5.0 0.00 0.00 0.00 49 1023.8
20260506095004 68 296 2.0 6.0 0.00 0.00 0.00 46 1023.6
20260506094005 69 290 2.0 6.0 0.00 0.00 0.00 44 1023.6
20260506093004 69 296 4.0 9.0 0.00 0.00 0.00 43 1023.4
20260506092005 70 292 4.0 7.0 0.00 0.00 0.00 43 1023.4
20260506091004 88 296 3.0 8.0 0.00 0.00 0.00 42 1023.4
20260506090005 83 294 4.0 11.0 0.00 0.00 0.00 39 1023.4
20260506085005 72 294 4.0 14.0 0.00 0.00 0.00 39 1023.4
20260506084004 72 279 5.0 12.0 0.00 0.00 0.00 39 1023.5
20260506083005 72 294 6.0 12.0 0.00 0.00 0.00 39 1023.3
20260506082005 76 296 4.0 11.0 0.00 0.00 0.00 39 1023.4
20260506081005 73 313 6.0 13.0 0.00 0.00 0.00 39 1023.4
20260506073004 73 295 4.0 11.0 0.00 0.00 0.00 39 1023.2
20260506072004 73 279 5.0 13.0 0.00 0.00 0.00 38 1023.4
20260506071005 73 275 8.0 14.0 0.00 0.00 0.00 38 1023.3
20260506062004 73 249 4.0 15.0 0.00 0.00 0.00 38 1023.4
20260506061004 73 259 8.0 12.0 0.00 0.00 0.00 38 1023.4
20260506051004 73 262 4.0 15.0 0.00 0.00 0.00 36 1023.7
20260506045004 72 260 8.0 15.0 0.00 0.00 0.00 36 1023.8
20260506044005 71 245 3.0 14.0 0.00 0.00 0.00 36 1024.0
20260506043004 71 255 8.0 15.0 0.00 0.00 0.00 34 1024.1
20260506042005 71 276 6.0 13.0 0.00 0.00 0.00 35 1024.3
20260506041004 71 236 5.0 11.0 0.00 0.00 0.00 35 1024.5
20260506040004 71 239 4.0 15.0 0.00 0.00 0.00 31 1024.5
20260506035004 71 235 6.0 15.0 0.00 0.00 0.00 31 1024.7
20260506034004 70 245 3.0 11.0 0.00 0.00 0.00 31 1024.7
20260506033005 70 264 5.0 12.0 0.00 0.00 0.00 29 1025.0
20260506032004 70 267 4.0 12.0 0.00 0.00 0.00 29 1025.0
20260506031004 69 266 7.0 15.0 0.00 0.00 0.00 28 1025.1
20260506030005 69 245 7.0 17.0 0.00 0.00 0.00 25 1025.2
20260506025004 69 243 4.0 15.0 0.00 0.00 0.00 26 1025.0
20260506024005 68 270 9.0 15.0 0.00 0.00 0.00 25 1025.1
20260506023004 67 231 6.0 12.0 0.00 0.00 0.00 23 1025.3
20260506022004 67 270 7.0 11.0 0.00 0.00 0.00 21 1025.3
20260506021004 66 275 5.0 11.0 0.00 0.00 0.00 22 1025.4
20260506020004 65 284 8.0 13.0 0.00 0.00 0.00 22 1025.4
20260506015004 65 270 5.0 11.0 0.00 0.00 0.00 21 1025.5
20260506014004 64 270 7.0 15.0 0.00 0.00 0.00 22 1025.5
20260506013004 63 282 8.0 14.0 0.00 0.00 0.00 23 1025.5
20260506012004 62 289 8.0 14.0 0.00 0.00 0.00 23 1025.5
20260506011004 78 271 4.0 16.0 0.00 0.00 0.00 24 1025.5
20260506010004 61 285 8.0 17.0 0.00 0.00 0.00 23 1025.4
20260506005004 60 273 9.0 15.0 0.00 0.00 0.00 24 1025.4
20260506004004 60 268 9.0 15.0 0.00 0.00 0.00 23 1025.2
20260506003004 59 269 7.0 11.0 0.00 0.00 0.00 25 1025.2
20260506002004 59 288 3.0 11.0 0.00 0.00 0.00 25 1025.1
20260506001004 58 293 8.0 11.0 0.00 0.00 0.00 26 1025.0
20260506000004 57 299 6.0 11.0 0.00 0.00 0.00 28 1024.9
20260505235004 56 300 8.0 13.0 0.00 0.00 0.00 29 1024.8
20260505234004 56 304 6.0 11.0 0.00 0.00 0.00 31 1024.6
20260505233004 55 290 6.0 14.0 0.00 0.00 0.00 34 1024.5
20260505232004 54 293 6.0 10.0 0.00 0.00 0.00 39 1024.4
20260505231004 54 291 4.0 11.0 0.00 0.00 0.00 41 1024.1
20260505230004 53 284 4.0 8.0 0.00 0.00 0.00 44 1024.0
20260505225004 53 269 3.0 8.0 0.00 0.00 0.00 45 1023.9
20260505224003 54 291 3.0 8.0 0.00 0.00 0.00 46 1023.9
20260505223004 54 272 4.0 8.0 0.00 0.00 0.00 46 1023.8
20260505222003 54 277 4.0 9.0 0.00 0.00 0.00 46 1023.9
20260505221004 55 271 6.0 9.0 0.00 0.00 0.00 46 1023.6
20260505220003 55 286 4.0 14.0 0.00 0.00 0.00 47 1023.6
20260505215004 55 286 3.0 11.0 0.00 0.00 0.00 47 1023.5
20260505214004 55 275 5.0 11.0 0.00 0.00 0.00 48 1023.4
20260505213003 55 280 7.0 12.0 0.00 0.00 0.00 49 1023.4
20260505212004 55 281 7.0 12.0 0.00 0.00 0.00 50 1023.4
20260505211003 56 303 7.0 16.0 0.00 0.00 0.00 50 1023.3
20260505210003 56 306 5.0 17.0 0.00 0.00 0.00 50 1023.1
20260505205003 56 303 7.0 15.0 0.00 0.00 0.00 50 1023.1
20260505204003 56 279 5.0 14.0 0.00 0.00 0.00 50 1023.1
20260505203004 56 300 8.0 13.0 0.00 0.00 0.00 51 1023.0
20260505202004 56 288 7.0 15.0 0.00 0.00 0.00 51 1023.0
20260505201003 56 298 5.0 12.0 0.00 0.00 0.00 52 1022.9
20260505200003 56 294 7.0 11.0 0.00 0.00 0.00 52 1022.9
20260505195004 56 283 4.0 12.0 0.00 0.00 0.00 52 1022.9
20260505194005 57 283 4.0 13.0 0.00 0.00 0.00 52 1022.9
20260505193005 57 306 4.0 11.0 0.00 0.00 0.00 52 1022.8
20260505192005 57 290 5.0 10.0 0.00 0.00 0.00 52 1022.9
20260505191006 57 290 5.0 11.0 0.00 0.00 0.00 52 1022.7
20260505190005 58 289 3.0 11.0 0.00 0.00 0.00 51 1022.6
20260505185005 58 299 6.0 11.0 0.00 0.00 0.00 51 1022.6
20260505184006 58 289 6.0 9.0 0.00 0.00 0.00 51 1022.7
20260505183005 58 294 4.0 10.0 0.00 0.00 0.00 51 1022.8
20260505182005 58 301 6.0 12.0 0.00 0.00 0.00 50 1022.9
20260505181006 58 303 5.0 12.0 0.00 0.00 0.00 50 1022.8
20260505180005 59 304 4.0 16.0 0.00 0.00 0.00 48 1022.9
20260505175005 59 294 6.0 17.0 0.00 0.00 0.00 47 1022.8
20260505174006 59 285 4.0 14.0 0.00 0.00 0.00 47 1022.8
20260505173005 59 295 7.0 14.0 0.00 0.00 0.00 47 1022.8
20260505172005 59 301 6.0 14.0 0.00 0.00 0.00 46 1022.8
20260505171006 59 291 7.0 13.0 0.00 0.00 0.00 46 1022.6
20260505170005 58 304 4.0 11.0 0.00 0.00 0.00 48 1022.6
20260505165005 58 303 3.0 8.0 0.00 0.00 0.00 50 1022.5
20260505164005 57 307 3.0 5.0 0.00 0.00 0.00 52 1022.4
20260505163006 58 297 2.0 4.0 0.00 0.00 0.00 52 1022.4
20260505162005 58 304 2.0 5.0 0.00 0.00 0.00 50 1022.4
20260505161005 59 299 2.0 7.0 0.00 0.00 0.00 49 1022.3